contact:dominique.lefevre@mio.osupytheas.fr, maurice.libes@osupytheas.fr, didier.mallarino@osupytheas.fr
Project:EMSO http://www.emso-fr.org/EMSO-France
Depth: 2436.0 m
Title:EMSO Ligure Ouest : Data MII capteur MICROCAT
DateTime_Computer,Latitude,Longitude,Temperature,Conductivity,Pressure,DateTime_Instrument
DateTime_Computer,Latitude,Longitude,degC,S m-1,dbar,DateTime_Instrument
2023-11-15T00:00:01Z,42.805,6.029,13.3128,4.60166,2470.693,2023-11-15T02:02:28Z
2023-11-15T00:03:04Z,42.805,6.029,13.3125,4.60150,2470.684,2023-11-15T02:05:31Z
2023-11-15T00:06:07Z,42.805,6.029,13.3109,4.60144,2470.67,2023-11-15T02:08:34Z
2023-11-15T00:09:10Z,42.805,6.029,13.3098,4.60197,2470.717,2023-11-15T02:11:37Z
2023-11-15T00:12:13Z,42.805,6.029,13.3113,4.60156,2470.707,2023-11-15T02:14:40Z
2023-11-15T00:15:16Z,42.805,6.029,13.3115,4.60152,2470.73,2023-11-15T02:17:43Z
2023-11-15T00:18:19Z,42.805,6.029,13.3107,4.60163,2470.661,2023-11-15T02:20:46Z
2023-11-15T00:21:22Z,42.805,6.029,13.3089,4.60151,2470.684,2023-11-15T02:23:50Z
2023-11-15T00:24:25Z,42.805,6.029,13.3102,4.60144,2470.684,2023-11-15T02:26:53Z
2023-11-15T00:27:29Z,42.805,6.029,13.3093,4.60175,2470.684,2023-11-15T02:29:56Z
2023-11-15T00:30:32Z,42.805,6.029,13.3047,4.60170,2470.684,2023-11-15T02:32:59Z
2023-11-15T00:33:35Z,42.805,6.029,13.3039,4.60132,2470.707,2023-11-15T02:36:02Z
2023-11-15T00:36:38Z,42.805,6.029,13.3042,4.60125,2470.693,2023-11-15T02:39:05Z
2023-11-15T00:39:41Z,42.805,6.029,13.3041,4.60122,2470.646,2023-11-15T02:42:08Z
2023-11-15T00:42:44Z,42.805,6.029,13.3048,4.60121,2470.707,2023-11-15T02:45:11Z
2023-11-15T00:45:47Z,42.805,6.029,13.3041,4.60122,2470.693,2023-11-15T02:48:14Z
2023-11-15T00:48:50Z,42.805,6.029,13.3044,4.60120,2470.661,2023-11-15T02:51:17Z
2023-11-15T00:51:53Z,42.805,6.029,13.3043,4.60123,2470.67,2023-11-15T02:54:20Z
2023-11-15T00:54:56Z,42.805,6.029,13.3043,4.60116,2470.693,2023-11-15T02:57:23Z
2023-11-15T00:57:59Z,42.805,6.029,13.3042,4.60119,2470.684,2023-11-15T03:00:27Z
2023-11-15T01:01:02Z,42.805,6.029,13.3046,4.60117,2470.646,2023-11-15T03:03:30Z
2023-11-15T01:04:05Z,42.805,6.029,13.3041,4.60117,2470.67,2023-11-15T03:06:33Z
2023-11-15T01:07:09Z,42.805,6.029,13.3045,4.60121,2470.693,2023-11-15T03:09:36Z
2023-11-15T01:10:12Z,42.805,6.029,13.3043,4.60142,2470.67,2023-11-15T03:12:39Z
2023-11-15T01:13:15Z,42.805,6.029,13.3042,4.60138,2470.67,2023-11-15T03:15:42Z
2023-11-15T01:16:18Z,42.805,6.029,13.3048,4.60132,2470.646,2023-11-15T03:18:45Z
2023-11-15T01:19:21Z,42.805,6.029,13.3048,4.60190,2470.684,2023-11-15T03:21:48Z
2023-11-15T01:22:24Z,42.805,6.029,13.3046,4.60147,2470.67,2023-11-15T03:24:51Z
2023-11-15T01:25:27Z,42.805,6.029,13.3049,4.60175,2470.624,2023-11-15T03:27:54Z
2023-11-15T01:28:30Z,42.805,6.029,13.3046,4.60142,2470.67,2023-11-15T03:30:57Z
2023-11-15T01:31:33Z,42.805,6.029,13.3043,4.60161,2470.661,2023-11-15T03:34:00Z
2023-11-15T01:34:36Z,42.805,6.029,13.3043,4.60151,2470.67,2023-11-15T03:37:03Z
2023-11-15T01:37:39Z,42.805,6.029,13.3050,4.60135,2470.646,2023-11-15T03:40:07Z
2023-11-15T01:40:42Z,42.805,6.029,13.3045,4.60123,2470.646,2023-11-15T03:43:10Z
2023-11-15T01:43:46Z,42.805,6.029,13.3043,4.60128,2470.646,2023-11-15T03:46:13Z
2023-11-15T01:46:49Z,42.805,6.029,13.3043,4.60120,2470.661,2023-11-15T03:49:16Z
2023-11-15T01:49:52Z,42.805,6.029,13.3043,4.60122,2470.646,2023-11-15T03:52:19Z
2023-11-15T01:52:55Z,42.805,6.029,13.3047,4.60129,2470.67,2023-11-15T03:55:22Z
2023-11-15T01:55:58Z,42.805,6.029,13.3043,4.60152,2470.646,2023-11-15T03:58:25Z
2023-11-15T01:59:01Z,42.805,6.029,13.3043,4.60157,2470.693,2023-11-15T04:01:28Z
2023-11-15T02:02:04Z,42.805,6.029,13.3041,4.60161,2470.67,2023-11-15T04:04:31Z
2023-11-15T02:05:07Z,42.805,6.029,13.3045,4.60155,2470.67,2023-11-15T04:07:34Z
2023-11-15T02:08:10Z,42.805,6.029,13.3046,4.60138,2470.684,2023-11-15T04:10:37Z
2023-11-15T02:11:13Z,42.805,6.029,13.3045,4.60128,2470.67,2023-11-15T04:13:40Z
2023-11-15T02:14:16Z,42.805,6.029,13.3042,4.60150,2470.646,2023-11-15T04:16:44Z
2023-11-15T02:17:19Z,42.805,6.029,13.3044,4.60194,2470.646,2023-11-15T04:19:47Z
2023-11-15T02:20:23Z,42.805,6.029,13.3049,4.60165,2470.661,2023-11-15T04:22:50Z
2023-11-15T02:23:26Z,42.805,6.029,13.3044,4.60170,2470.684,2023-11-15T04:25:53Z
2023-11-15T02:26:29Z,42.805,6.029,13.3048,4.60170,2470.661,2023-11-15T04:28:56Z
2023-11-15T02:29:32Z,42.805,6.029,13.3060,4.60170,2470.684,2023-11-15T04:31:59Z
2023-11-15T02:32:35Z,42.805,6.029,13.3072,4.60152,2470.67,2023-11-15T04:35:02Z
2023-11-15T02:35:38Z,42.805,6.029,13.3069,4.60180,2470.646,2023-11-15T04:38:05Z
2023-11-15T02:38:41Z,42.805,6.029,13.3074,4.60163,2470.684,2023-11-15T04:41:08Z
2023-11-15T02:41:44Z,42.805,6.029,13.3075,4.60159,2470.661,2023-11-15T04:44:11Z
2023-11-15T02:44:47Z,42.805,6.029,13.3079,4.60187,2470.646,2023-11-15T04:47:14Z
2023-11-15T02:47:50Z,42.805,6.029,13.3088,4.60205,2470.624,2023-11-15T04:50:17Z
2023-11-15T02:50:53Z,42.805,6.029,13.3084,4.60205,2470.693,2023-11-15T04:53:20Z
2023-11-15T02:53:56Z,42.805,6.029,13.3089,4.60158,2470.656,2023-11-15T04:56:24Z
2023-11-15T02:57:00Z,42.805,6.029,13.3116,4.60193,2470.646,2023-11-15T04:59:27Z
2023-11-15T03:00:03Z,42.805,6.029,13.3053,4.60164,2470.646,2023-11-15T05:02:30Z
2023-11-15T03:03:06Z,42.805,6.029,13.3054,4.60179,2470.684,2023-11-15T05:05:33Z
2023-11-15T03:06:09Z,42.805,6.029,13.3051,4.60170,2470.684,2023-11-15T05:08:36Z
2023-11-15T03:09:12Z,42.805,6.029,13.3107,4.60155,2470.661,2023-11-15T05:11:39Z
2023-11-15T03:12:15Z,42.805,6.029,13.3077,4.60155,2470.684,2023-11-15T05:14:42Z
2023-11-15T03:15:18Z,42.805,6.029,13.3069,4.60135,2470.661,2023-11-15T05:17:45Z
2023-11-15T03:18:21Z,42.805,6.029,13.3084,4.60131,2470.707,2023-11-15T05:20:48Z
2023-11-15T03:21:24Z,42.805,6.029,13.3120,4.60133,2470.693,2023-11-15T05:23:51Z
2023-11-15T03:24:27Z,42.805,6.029,13.3082,4.60148,2470.67,2023-11-15T05:26:54Z
2023-11-15T03:27:30Z,42.805,6.029,13.3094,4.60167,2470.67,2023-11-15T05:29:57Z
2023-11-15T03:30:33Z,42.805,6.029,13.3091,4.60144,2470.67,2023-11-15T05:33:01Z
2023-11-15T03:33:36Z,42.805,6.029,13.3093,4.60160,2470.67,2023-11-15T05:36:04Z
2023-11-15T03:36:40Z,42.805,6.029,13.3105,4.60182,2470.684,2023-11-15T05:39:07Z
2023-11-15T03:39:43Z,42.805,6.029,13.3107,4.60162,2470.661,2023-11-15T05:42:10Z
2023-11-15T03:42:46Z,42.805,6.029,13.3096,4.60193,2470.707,2023-11-15T05:45:13Z
2023-11-15T03:45:49Z,42.805,6.029,13.3093,4.60200,2470.67,2023-11-15T05:48:16Z
2023-11-15T03:48:52Z,42.805,6.029,13.3089,4.60166,2470.707,2023-11-15T05:51:19Z
2023-11-15T03:51:55Z,42.805,6.029,13.3105,4.60155,2470.693,2023-11-15T05:54:22Z
2023-11-15T03:54:58Z,42.805,6.029,13.3108,4.60150,2470.707,2023-11-15T05:57:25Z
2023-11-15T03:58:01Z,42.805,6.029,13.3113,4.60142,2470.684,2023-11-15T06:00:28Z
2023-11-15T04:01:04Z,42.805,6.029,13.3107,4.60151,2470.707,2023-11-15T06:03:31Z
2023-11-15T04:04:07Z,42.805,6.029,13.3103,4.60178,2470.684,2023-11-15T06:06:34Z
2023-11-15T04:07:10Z,42.805,6.029,13.3101,4.60173,2470.67,2023-11-15T06:09:38Z
2023-11-15T04:10:13Z,42.805,6.029,13.3101,4.60167,2470.707,2023-11-15T06:12:41Z
2023-11-15T04:13:17Z,42.805,6.029,13.3096,4.60175,2470.67,2023-11-15T06:15:44Z
2023-11-15T04:16:20Z,42.805,6.029,13.3090,4.60163,2470.693,2023-11-15T06:18:47Z
2023-11-15T04:19:23Z,42.805,6.029,13.3092,4.60164,2470.693,2023-11-15T06:21:50Z
2023-11-15T04:22:26Z,42.805,6.029,13.3092,4.60175,2470.73,2023-11-15T06:24:53Z
2023-11-15T04:25:29Z,42.805,6.029,13.3089,4.60164,2470.693,2023-11-15T06:27:56Z
2023-11-15T04:28:32Z,42.805,6.029,13.3072,4.60166,2470.707,2023-11-15T06:30:59Z
2023-11-15T04:31:35Z,42.805,6.029,13.3094,4.60170,2470.717,2023-11-15T06:34:02Z
2023-11-15T04:34:38Z,42.805,6.029,13.3091,4.60165,2470.693,2023-11-15T06:37:05Z
2023-11-15T04:37:41Z,42.805,6.029,13.3097,4.60157,2470.73,2023-11-15T06:40:08Z
2023-11-15T04:40:44Z,42.805,6.029,13.3096,4.60176,2470.74,2023-11-15T06:43:11Z
2023-11-15T04:43:47Z,42.805,6.029,13.3102,4.60146,2470.707,2023-11-15T06:46:15Z
2023-11-15T04:46:50Z,42.805,6.029,13.3112,4.60142,2470.754,2023-11-15T06:49:18Z
2023-11-15T04:49:54Z,42.805,6.029,13.3100,4.60141,2470.754,2023-11-15T06:52:21Z
2023-11-15T04:52:57Z,42.805,6.029,13.3091,4.60135,2470.74,2023-11-15T06:55:24Z
2023-11-15T04:56:00Z,42.805,6.029,13.3092,4.60138,2470.754,2023-11-15T06:58:27Z
2023-11-15T04:59:03Z,42.805,6.029,13.3101,4.60135,2470.74,2023-11-15T07:01:30Z
2023-11-15T05:02:06Z,42.805,6.029,13.3091,4.60158,2470.754,2023-11-15T07:04:33Z
2023-11-15T05:05:09Z,42.805,6.029,13.3104,4.60170,2470.777,2023-11-15T07:07:36Z
2023-11-15T05:08:12Z,42.805,6.029,13.3098,4.60150,2470.763,2023-11-15T07:10:39Z
2023-11-15T05:11:15Z,42.805,6.029,13.3109,4.60173,2470.763,2023-11-15T07:13:42Z
2023-11-15T05:14:18Z,42.805,6.029,13.3102,4.60183,2470.73,2023-11-15T07:16:45Z
2023-11-15T05:17:21Z,42.805,6.029,13.3118,4.60162,2470.74,2023-11-15T07:19:48Z
2023-11-15T05:20:24Z,42.805,6.029,13.3119,4.60151,2470.787,2023-11-15T07:22:52Z
2023-11-15T05:23:27Z,42.805,6.029,13.3119,4.60173,2470.763,2023-11-15T07:25:55Z
2023-11-15T05:26:31Z,42.805,6.029,13.3110,4.60194,2470.8,2023-11-15T07:28:58Z
2023-11-15T05:29:34Z,42.805,6.029,13.3094,4.60169,2470.787,2023-11-15T07:32:01Z
2023-11-15T05:32:35Z,42.805,6.029,13.3096,4.60148,2470.777,2023-11-15T07:35:02Z
2023-11-15T05:35:38Z,42.805,6.029,13.3123,4.60142,2470.777,2023-11-15T07:38:06Z
2023-11-15T05:38:41Z,42.805,6.029,13.3108,4.60150,2470.8,2023-11-15T07:41:09Z
2023-11-15T05:41:45Z,42.805,6.029,13.3085,4.60168,2470.787,2023-11-15T07:44:12Z
2023-11-15T05:44:48Z,42.805,6.029,13.3093,4.60155,2470.8,2023-11-15T07:47:15Z
2023-11-15T05:47:51Z,42.805,6.029,13.3095,4.60168,2470.8,2023-11-15T07:50:18Z
2023-11-15T05:50:54Z,42.805,6.029,13.3123,4.60166,2470.824,2023-11-15T07:53:21Z
2023-11-15T05:53:57Z,42.805,6.029,13.3120,4.60137,2470.81,2023-11-15T07:56:24Z
2023-11-15T05:57:00Z,42.805,6.029,13.3100,4.60157,2470.81,2023-11-15T07:59:27Z
2023-11-15T06:00:03Z,42.805,6.029,13.3101,4.60178,2470.8,2023-11-15T08:02:30Z
2023-11-15T06:03:06Z,42.805,6.029,13.3093,4.60164,2470.847,2023-11-15T08:05:33Z
2023-11-15T06:06:09Z,42.805,6.029,13.3094,4.60205,2470.833,2023-11-15T08:08:36Z
2023-11-15T06:09:12Z,42.805,6.029,13.3085,4.60180,2470.833,2023-11-15T08:11:39Z
2023-11-15T06:12:15Z,42.805,6.029,13.3089,4.60166,2470.871,2023-11-15T08:14:43Z
2023-11-15T06:15:18Z,42.805,6.029,13.3082,4.60160,2470.833,2023-11-15T08:17:46Z
2023-11-15T06:18:21Z,42.805,6.029,13.3082,4.60152,2470.833,2023-11-15T08:20:49Z
2023-11-15T06:21:25Z,42.805,6.029,13.3091,4.60142,2470.833,2023-11-15T08:23:52Z
2023-11-15T06:24:28Z,42.805,6.029,13.3095,4.60150,2470.847,2023-11-15T08:26:55Z
2023-11-15T06:27:31Z,42.805,6.029,13.3085,4.60177,2470.824,2023-11-15T08:29:58Z
2023-11-15T06:30:34Z,42.805,6.029,13.3082,4.60183,2470.833,2023-11-15T08:33:01Z
2023-11-15T06:33:37Z,42.805,6.029,13.3086,4.60143,2470.857,2023-11-15T08:36:04Z
2023-11-15T06:36:40Z,42.805,6.029,13.3072,4.60159,2470.847,2023-11-15T08:39:07Z
2023-11-15T06:39:43Z,42.805,6.029,13.3075,4.60149,2470.871,2023-11-15T08:42:10Z
2023-11-15T06:42:46Z,42.805,6.029,13.3075,4.60173,2470.857,2023-11-15T08:45:13Z
2023-11-15T06:45:49Z,42.805,6.029,13.3084,4.60180,2470.88,2023-11-15T08:48:16Z
2023-11-15T06:48:52Z,42.805,6.029,13.3098,4.60148,2470.871,2023-11-15T08:51:19Z
2023-11-15T06:51:55Z,42.805,6.029,13.3098,4.60183,2470.857,2023-11-15T08:54:23Z
2023-11-15T06:54:58Z,42.805,6.029,13.3099,4.60175,2470.88,2023-11-15T08:57:26Z
2023-11-15T06:58:02Z,42.805,6.029,13.3106,4.60157,2470.871,2023-11-15T09:00:29Z
2023-11-15T07:01:05Z,42.805,6.029,13.3104,4.60180,2470.857,2023-11-15T09:03:32Z
2023-11-15T07:04:08Z,42.805,6.029,13.3104,4.60175,2470.871,2023-11-15T09:06:35Z
2023-11-15T07:07:11Z,42.805,6.029,13.3091,4.60180,2470.857,2023-11-15T09:09:38Z
2023-11-15T07:10:14Z,42.805,6.029,13.3089,4.60160,2470.894,2023-11-15T09:12:41Z
2023-11-15T07:13:17Z,42.805,6.029,13.3113,4.60180,2470.833,2023-11-15T09:15:44Z
2023-11-15T07:16:20Z,42.805,6.029,13.3104,4.60190,2470.871,2023-11-15T09:18:47Z
2023-11-15T07:19:23Z,42.805,6.029,13.3095,4.60162,2470.894,2023-11-15T09:21:50Z
2023-11-15T07:22:26Z,42.805,6.029,13.3111,4.60160,2470.857,2023-11-15T09:24:53Z
2023-11-15T07:25:29Z,42.805,6.029,13.3092,4.60147,2470.904,2023-11-15T09:27:56Z
2023-11-15T07:28:32Z,42.805,6.029,13.3117,4.60155,2470.894,2023-11-15T09:31:00Z
2023-11-15T07:31:34Z,42.805,6.029,13.3097,4.60163,2470.88,2023-11-15T09:34:02Z
2023-11-15T07:34:38Z,42.805,6.029,13.3095,4.60157,2470.88,2023-11-15T09:37:05Z
2023-11-15T07:37:41Z,42.805,6.029,13.3086,4.60175,2470.894,2023-11-15T09:40:08Z
2023-11-15T07:40:44Z,42.805,6.029,13.3102,4.60173,2470.894,2023-11-15T09:43:11Z
2023-11-15T07:43:47Z,42.805,6.029,13.3098,4.60167,2470.88,2023-11-15T09:46:14Z
2023-11-15T07:46:50Z,42.805,6.029,13.3111,4.60154,2470.904,2023-11-15T09:49:17Z
2023-11-15T07:49:53Z,42.805,6.029,13.3098,4.60176,2470.894,2023-11-15T09:52:20Z
2023-11-15T07:52:56Z,42.805,6.029,13.3120,4.60157,2470.917,2023-11-15T09:55:23Z
2023-11-15T07:55:59Z,42.805,6.029,13.3096,4.60158,2470.894,2023-11-15T09:58:26Z
2023-11-15T07:59:02Z,42.805,6.029,13.3124,4.60162,2470.917,2023-11-15T10:01:29Z
2023-11-15T08:02:05Z,42.805,6.029,13.3123,4.60155,2470.917,2023-11-15T10:04:32Z
2023-11-15T08:05:08Z,42.805,6.029,13.3124,4.60200,2470.927,2023-11-15T10:07:36Z
2023-11-15T08:08:11Z,42.805,6.029,13.3120,4.60176,2470.904,2023-11-15T10:10:39Z
2023-11-15T08:11:15Z,42.805,6.029,13.3111,4.60163,2470.917,2023-11-15T10:13:42Z
2023-11-15T08:14:18Z,42.805,6.029,13.3114,4.60150,2470.894,2023-11-15T10:16:45Z
2023-11-15T08:17:21Z,42.805,6.029,13.3111,4.60152,2470.917,2023-11-15T10:19:48Z
2023-11-15T08:20:24Z,42.805,6.029,13.3119,4.60147,2470.894,2023-11-15T10:22:51Z
2023-11-15T08:23:27Z,42.805,6.029,13.3093,4.60167,2470.894,2023-11-15T10:25:54Z
2023-11-15T08:26:30Z,42.805,6.029,13.3104,4.60148,2470.917,2023-11-15T10:28:57Z
2023-11-15T08:29:33Z,42.805,6.029,13.3119,4.60155,2470.94,2023-11-15T10:32:00Z
2023-11-15T08:32:36Z,42.805,6.029,13.3097,4.60144,2470.904,2023-11-15T10:35:03Z
2023-11-15T08:35:39Z,42.805,6.029,13.3098,4.60167,2470.904,2023-11-15T10:38:06Z
2023-11-15T08:38:42Z,42.805,6.029,13.3109,4.60164,2470.88,2023-11-15T10:41:10Z
2023-11-15T08:41:45Z,42.805,6.029,13.3116,4.60162,2470.88,2023-11-15T10:44:13Z
2023-11-15T08:44:48Z,42.805,6.029,13.3128,4.60151,2470.917,2023-11-15T10:47:16Z
2023-11-15T08:47:52Z,42.805,6.029,13.3124,4.60150,2470.904,2023-11-15T10:50:19Z
2023-11-15T08:50:55Z,42.805,6.029,13.3086,4.60160,2470.917,2023-11-15T10:53:22Z
2023-11-15T08:53:58Z,42.805,6.029,13.3116,4.60199,2470.917,2023-11-15T10:56:25Z
2023-11-15T08:57:01Z,42.805,6.029,13.3089,4.60155,2470.88,2023-11-15T10:59:28Z
2023-11-15T09:00:04Z,42.805,6.029,13.3120,4.60155,2470.904,2023-11-15T11:02:31Z
2023-11-15T09:03:07Z,42.805,6.029,13.3114,4.60162,2470.904,2023-11-15T11:05:34Z
2023-11-15T09:06:10Z,42.805,6.029,13.3119,4.60157,2470.94,2023-11-15T11:08:37Z
2023-11-15T09:09:13Z,42.805,6.029,13.3121,4.60149,2470.871,2023-11-15T11:11:40Z
2023-11-15T09:12:16Z,42.805,6.029,13.3118,4.60165,2470.904,2023-11-15T11:14:43Z
2023-11-15T09:15:19Z,42.805,6.029,13.3113,4.60156,2470.871,2023-11-15T11:17:47Z
2023-11-15T09:18:22Z,42.805,6.029,13.3116,4.60162,2470.917,2023-11-15T11:20:50Z
2023-11-15T09:21:26Z,42.805,6.029,13.3120,4.60157,2470.88,2023-11-15T11:23:53Z
2023-11-15T09:24:29Z,42.805,6.029,13.3113,4.60146,2470.894,2023-11-15T11:26:56Z
2023-11-15T09:27:32Z,42.805,6.029,13.3135,4.60137,2470.94,2023-11-15T11:29:59Z
2023-11-15T09:30:34Z,42.805,6.029,13.3116,4.60145,2470.894,2023-11-15T11:33:01Z
2023-11-15T09:33:37Z,42.805,6.029,13.3106,4.60144,2470.894,2023-11-15T11:36:04Z
2023-11-15T09:36:40Z,42.805,6.029,13.3140,4.60155,2470.871,2023-11-15T11:39:07Z
2023-11-15T09:39:43Z,42.805,6.029,13.3109,4.60162,2470.857,2023-11-15T11:42:10Z
2023-11-15T09:42:46Z,42.805,6.029,13.3097,4.60154,2470.857,2023-11-15T11:45:13Z
2023-11-15T09:45:49Z,42.805,6.029,13.3102,4.60167,2470.894,2023-11-15T11:48:16Z
2023-11-15T09:48:52Z,42.805,6.029,13.3106,4.60197,2470.894,2023-11-15T11:51:19Z
2023-11-15T09:51:55Z,42.805,6.029,13.3113,4.60178,2470.917,2023-11-15T11:54:22Z
2023-11-15T09:54:58Z,42.805,6.029,13.3071,4.60161,2470.871,2023-11-15T11:57:25Z
2023-11-15T09:58:01Z,42.805,6.029,13.3084,4.60165,2470.894,2023-11-15T12:00:29Z
2023-11-15T10:01:04Z,42.805,6.029,13.3116,4.60144,2470.894,2023-11-15T12:03:32Z
2023-11-15T10:04:07Z,42.805,6.029,13.3116,4.60151,2470.894,2023-11-15T12:06:35Z
2023-11-15T10:07:11Z,42.805,6.029,13.3107,4.60178,2470.847,2023-11-15T12:09:38Z
2023-11-15T10:10:14Z,42.805,6.029,13.3121,4.60186,2470.88,2023-11-15T12:12:41Z
2023-11-15T10:13:17Z,42.805,6.029,13.3089,4.60162,2470.871,2023-11-15T12:15:44Z
2023-11-15T10:16:20Z,42.805,6.029,13.3099,4.60150,2470.857,2023-11-15T12:18:47Z
2023-11-15T10:19:23Z,42.805,6.029,13.3113,4.60167,2470.857,2023-11-15T12:21:50Z
2023-11-15T10:22:26Z,42.805,6.029,13.3099,4.60175,2470.894,2023-11-15T12:24:53Z
2023-11-15T10:25:29Z,42.805,6.029,13.3111,4.60147,2470.904,2023-11-15T12:27:56Z
2023-11-15T10:28:32Z,42.805,6.029,13.3090,4.60146,2470.871,2023-11-15T12:30:59Z
2023-11-15T10:31:35Z,42.805,6.029,13.3106,4.60157,2470.871,2023-11-15T12:34:02Z
2023-11-15T10:34:38Z,42.805,6.029,13.3091,4.60145,2470.847,2023-11-15T12:37:06Z
2023-11-15T10:37:41Z,42.805,6.029,13.3117,4.60157,2470.871,2023-11-15T12:40:09Z
2023-11-15T10:40:45Z,42.805,6.029,13.3112,4.60140,2470.871,2023-11-15T12:43:12Z
2023-11-15T10:43:48Z,42.805,6.029,13.3128,4.60155,2470.847,2023-11-15T12:46:15Z
2023-11-15T10:46:51Z,42.805,6.029,13.3126,4.60146,2470.824,2023-11-15T12:49:18Z
2023-11-15T10:49:54Z,42.805,6.029,13.3111,4.60148,2470.871,2023-11-15T12:52:21Z
2023-11-15T10:52:57Z,42.805,6.029,13.3093,4.60159,2470.847,2023-11-15T12:55:24Z
2023-11-15T10:56:00Z,42.805,6.029,13.3096,4.60165,2470.833,2023-11-15T12:58:27Z
2023-11-15T10:59:03Z,42.805,6.029,13.3102,4.60149,2470.857,2023-11-15T13:01:30Z
2023-11-15T11:02:06Z,42.805,6.029,13.3098,4.60144,2470.81,2023-11-15T13:04:33Z
2023-11-15T11:05:09Z,42.805,6.029,13.3096,4.60162,2470.847,2023-11-15T13:07:36Z
2023-11-15T11:08:12Z,42.805,6.029,13.3093,4.60161,2470.833,2023-11-15T13:10:40Z
2023-11-15T11:11:15Z,42.805,6.029,13.3113,4.60166,2470.833,2023-11-15T13:13:43Z
2023-11-15T11:14:18Z,42.805,6.029,13.3118,4.60162,2470.824,2023-11-15T13:16:46Z
2023-11-15T11:17:22Z,42.805,6.029,13.3119,4.60151,2470.81,2023-11-15T13:19:49Z
2023-11-15T11:20:25Z,42.805,6.029,13.3098,4.60154,2470.833,2023-11-15T13:22:52Z
2023-11-15T11:23:28Z,42.805,6.029,13.3134,4.60149,2470.824,2023-11-15T13:25:55Z
2023-11-15T11:26:31Z,42.805,6.029,13.3118,4.60154,2470.824,2023-11-15T13:28:58Z
2023-11-15T11:29:34Z,42.805,6.029,13.3124,4.60146,2470.763,2023-11-15T13:32:01Z
2023-11-15T11:32:37Z,42.805,6.029,13.3126,4.60143,2470.833,2023-11-15T13:35:04Z
2023-11-15T11:35:40Z,42.805,6.029,13.3127,4.60150,2470.81,2023-11-15T13:38:07Z
2023-11-15T11:38:43Z,42.805,6.029,13.3115,4.60141,2470.8,2023-11-15T13:41:10Z
2023-11-15T11:41:46Z,42.805,6.029,13.3128,4.60150,2470.8,2023-11-15T13:44:13Z
2023-11-15T11:44:49Z,42.805,6.029,13.3096,4.60170,2470.8,2023-11-15T13:47:17Z
2023-11-15T11:47:52Z,42.805,6.029,13.3113,4.60152,2470.81,2023-11-15T13:50:20Z
2023-11-15T11:50:56Z,42.805,6.029,13.3093,4.60160,2470.796,2023-11-15T13:53:23Z
2023-11-15T11:53:59Z,42.805,6.029,13.3108,4.60166,2470.8,2023-11-15T13:56:26Z
2023-11-15T11:57:02Z,42.805,6.029,13.3117,4.60167,2470.787,2023-11-15T13:59:29Z
2023-11-15T12:00:05Z,42.805,6.029,13.3125,4.60152,2470.787,2023-11-15T14:02:32Z
2023-11-15T12:03:08Z,42.805,6.029,13.3113,4.60146,2470.8,2023-11-15T14:05:35Z
2023-11-15T12:06:11Z,42.805,6.029,13.3038,4.60178,2470.763,2023-11-15T14:08:38Z
2023-11-15T12:09:14Z,42.805,6.029,13.3038,4.60155,2470.763,2023-11-15T14:11:41Z
2023-11-15T12:12:17Z,42.805,6.029,13.3051,4.60158,2470.824,2023-11-15T14:14:44Z
2023-11-15T12:15:20Z,42.805,6.029,13.3039,4.60180,2470.763,2023-11-15T14:17:47Z
2023-11-15T12:18:23Z,42.805,6.029,13.3040,4.60154,2470.8,2023-11-15T14:20:50Z
2023-11-15T12:21:26Z,42.805,6.029,13.3037,4.60140,2470.754,2023-11-15T14:23:54Z
2023-11-15T12:24:29Z,42.805,6.029,13.3037,4.60150,2470.763,2023-11-15T14:26:57Z
2023-11-15T12:27:33Z,42.805,6.029,13.3035,4.60134,2470.74,2023-11-15T14:30:00Z
2023-11-15T12:30:36Z,42.805,6.029,13.3034,4.60138,2470.763,2023-11-15T14:33:03Z
2023-11-15T12:33:39Z,42.805,6.029,13.3038,4.60135,2470.763,2023-11-15T14:36:06Z
2023-11-15T12:36:42Z,42.805,6.029,13.3039,4.60134,2470.777,2023-11-15T14:39:09Z
2023-11-15T12:39:45Z,42.805,6.029,13.3040,4.60126,2470.74,2023-11-15T14:42:12Z
2023-11-15T12:42:48Z,42.805,6.029,13.3039,4.60152,2470.777,2023-11-15T14:45:15Z
2023-11-15T12:45:51Z,42.805,6.029,13.3037,4.60133,2470.777,2023-11-15T14:48:18Z
2023-11-15T12:48:54Z,42.805,6.029,13.3037,4.60133,2470.777,2023-11-15T14:51:21Z
2023-11-15T12:51:57Z,42.805,6.029,13.3038,4.60157,2470.754,2023-11-15T14:54:24Z
2023-11-15T12:55:00Z,42.805,6.029,13.3035,4.60132,2470.717,2023-11-15T14:57:27Z
2023-11-15T12:58:03Z,42.805,6.029,13.3035,4.60147,2470.717,2023-11-15T15:00:31Z
2023-11-15T13:01:06Z,42.805,6.029,13.3042,4.60160,2470.763,2023-11-15T15:03:34Z
2023-11-15T13:04:10Z,42.805,6.029,13.3039,4.60144,2470.74,2023-11-15T15:06:37Z
2023-11-15T13:07:13Z,42.805,6.029,13.3041,4.60162,2470.777,2023-11-15T15:09:40Z
2023-11-15T13:10:16Z,42.805,6.029,13.3040,4.60135,2470.717,2023-11-15T15:12:43Z
2023-11-15T13:13:19Z,42.805,6.029,13.3041,4.60157,2470.73,2023-11-15T15:15:46Z
2023-11-15T13:16:22Z,42.805,6.029,13.3039,4.60139,2470.777,2023-11-15T15:18:49Z
2023-11-15T13:19:25Z,42.805,6.029,13.3043,4.60163,2470.717,2023-11-15T15:21:52Z
2023-11-15T13:22:28Z,42.805,6.029,13.3039,4.60140,2470.717,2023-11-15T15:24:55Z
2023-11-15T13:25:31Z,42.805,6.029,13.3037,4.60134,2470.74,2023-11-15T15:27:58Z
2023-11-15T13:28:34Z,42.805,6.029,13.3084,4.60179,2470.754,2023-11-15T15:31:01Z
2023-11-15T13:31:37Z,42.805,6.029,13.3036,4.60142,2470.73,2023-11-15T15:34:05Z
2023-11-15T13:34:40Z,42.805,6.029,13.3035,4.60147,2470.74,2023-11-15T15:37:08Z
2023-11-15T13:37:43Z,42.805,6.029,13.3041,4.60136,2470.717,2023-11-15T15:40:11Z
2023-11-15T13:40:47Z,42.805,6.029,13.3036,4.60122,2470.763,2023-11-15T15:43:14Z
2023-11-15T13:43:50Z,42.805,6.029,13.3041,4.60140,2470.717,2023-11-15T15:46:17Z
2023-11-15T13:46:53Z,42.805,6.029,13.3039,4.60117,2470.74,2023-11-15T15:49:20Z
2023-11-15T13:49:56Z,42.805,6.029,13.3034,4.60117,2470.717,2023-11-15T15:52:23Z
2023-11-15T13:52:59Z,42.805,6.029,13.3039,4.60121,2470.717,2023-11-15T15:55:26Z
2023-11-15T13:56:02Z,42.805,6.029,13.3036,4.60122,2470.73,2023-11-15T15:58:29Z
2023-11-15T13:59:05Z,42.805,6.029,13.3040,4.60121,2470.74,2023-11-15T16:01:32Z
2023-11-15T14:02:08Z,42.805,6.029,13.3038,4.60130,2470.74,2023-11-15T16:04:35Z
2023-11-15T14:05:11Z,42.805,6.029,13.3041,4.60116,2470.693,2023-11-15T16:07:38Z
2023-11-15T14:08:14Z,42.805,6.029,13.3033,4.60113,2470.693,2023-11-15T16:10:42Z
2023-11-15T14:11:17Z,42.805,6.029,13.3039,4.60120,2470.717,2023-11-15T16:13:45Z
2023-11-15T14:14:21Z,42.805,6.029,13.3031,4.60110,2470.73,2023-11-15T16:16:48Z
2023-11-15T14:17:24Z,42.805,6.029,13.3034,4.60112,2470.717,2023-11-15T16:19:51Z
2023-11-15T14:20:27Z,42.805,6.029,13.3036,4.60114,2470.73,2023-11-15T16:22:54Z
2023-11-15T14:23:30Z,42.805,6.029,13.3034,4.60113,2470.73,2023-11-15T16:25:57Z
2023-11-15T14:26:33Z,42.805,6.029,13.3034,4.60122,2470.717,2023-11-15T16:29:00Z
2023-11-15T14:29:36Z,42.805,6.029,13.3036,4.60122,2470.707,2023-11-15T16:32:03Z
2023-11-15T14:32:39Z,42.805,6.029,13.3029,4.60117,2470.73,2023-11-15T16:35:06Z
2023-11-15T14:35:42Z,42.805,6.029,13.3035,4.60116,2470.717,2023-11-15T16:38:09Z
2023-11-15T14:38:45Z,42.805,6.029,13.3031,4.60108,2470.717,2023-11-15T16:41:12Z
2023-11-15T14:41:48Z,42.805,6.029,13.3036,4.60109,2470.693,2023-11-15T16:44:16Z
2023-11-15T14:44:51Z,42.805,6.029,13.3036,4.60110,2470.684,2023-11-15T16:47:19Z
2023-11-15T14:47:54Z,42.805,6.029,13.3029,4.60125,2470.707,2023-11-15T16:50:22Z
2023-11-15T14:50:58Z,42.805,6.029,13.3034,4.60118,2470.717,2023-11-15T16:53:25Z
2023-11-15T14:54:01Z,42.805,6.029,13.3031,4.60109,2470.717,2023-11-15T16:56:28Z
2023-11-15T14:57:04Z,42.805,6.029,13.3031,4.60120,2470.717,2023-11-15T16:59:31Z
2023-11-15T15:00:07Z,42.805,6.029,13.3031,4.60112,2470.693,2023-11-15T17:02:34Z